Location: Les Coudrans
(46.1056°N, 1.1158°W)
Time: 02:22:32
(UTC+00:00)

DMSP B5D2-2 - Pass Details

Date: 25 June 2021
Orbit: 789 x 807 km, 98.3° (Epoch: 02 August)

Event Time Altitude Azimuth Distance (km) Brightness Sun altitude
Rises 21:12:36 0° 357° (N) 3,318 8.2 -10.1°
Reaches altitude 10° 21:16:14 10° 331° (NNW) 2,378 8.1 -10.5°
Maximum altitude 21:18:33 13° 305° (NW) 2,161 7.6 -10.7°
Drops below altitude 10° 21:20:51 10° 278° (W) 2,367 7.3 -11.0°
Sets 21:24:28 0° 252° (WSW) 3,288 7.6 -11.3°
